Location: Eckley Miners' Village
(40.9930°N, 75.8630°W)
Time: 09:41:58
(UTC-05:00)

Injun/Solrad 3 - All Passes

Search period start: 10 December 2025 00:00
Search period end: 20 December 2025 00:00
Orbit: 876 x 980 km, 66.8° (Epoch: 09 December)

Date Brightness Start Highest point End Pass type
(mag) Time Alt. Az. Time Alt. Az. Time Alt. Az.
10 Dec - 02:32:16 10° S 02:37:52 47° ESE 02:43:25 10° NE visible
10 Dec - 04:19:23 10° WSW 04:24:30 30° NW 04:29:36 10° NNE visible
10 Dec - 09:51:13 10° NNE 09:53:10 12° NNE 09:55:09 10° NE daylight
10 Dec - 11:35:18 10° NNW 11:41:05 51° NE 11:46:59 10° SE daylight
10 Dec - 13:22:24 10° NW 13:27:13 26° WSW 13:32:07 10° SSW daylight
11 Dec - 02:42:56 10° SSW 02:48:48 73° ESE 02:54:37 10° NNE visible
11 Dec - 04:31:27 10° W 04:35:51 21° NW 04:40:14 10° N visible
11 Dec - 10:01:11 10° N 10:04:45 16° NE 10:08:20 10° ENE daylight
11 Dec - 11:46:14 10° NNW 11:52:12 77° ENE 11:58:17 10° SE daylight
11 Dec - 13:34:25 10° WNW 13:37:59 16° WSW 13:41:35 10° SW daylight
12 Dec - 01:10:37 10° SE 01:14:04 16° ESE 01:17:30 10° ENE night (unlit)
12 Dec - 02:53:56 10° SW 02:59:49 75° WNW 03:05:41 10° NNE visible
12 Dec - 04:43:58 10° WNW 04:47:19 15° NW 04:50:40 10° N visible
12 Dec - 10:11:39 10° N 10:16:12 22° NE 10:20:49 10° E daylight
12 Dec - 11:57:17 10° NNW 12:03:14 72° WSW 12:09:17 10° SSE daylight
13 Dec - 01:20:04 10° SSE 01:24:49 26° ESE 01:29:32 10° NE night (unlit)
13 Dec - 03:05:15 10° SW 03:10:56 49° NW 03:16:37 10° NNE visible
13 Dec - 04:57:19 10° NW 04:58:54 11° NNW 05:00:29 10° NNW visible
13 Dec - 10:22:18 10° NNW 10:27:33 31° NE 10:32:52 10° ESE daylight
13 Dec - 12:08:30 10° NW 12:14:10 46° WSW 12:19:58 10° S daylight
14 Dec - 01:30:12 10° S 01:35:39 40° ESE 01:41:04 10° NE night (unlit)
14 Dec - 03:16:52 10° WSW 03:22:09 34° NW 03:27:26 10° NNE visible
14 Dec - 08:49:43 10° NNE 08:50:43 10° NNE 08:51:44 10° NE daylight
14 Dec - 10:33:06 10° NNW 10:38:47 45° NE 10:44:35 10° SE daylight
14 Dec - 12:19:55 10° NW 12:25:02 30° WSW 12:30:14 10° SSW daylight
15 Dec - 01:40:45 10° SSW 01:46:33 63° ESE 01:52:20 10° NE night (unlit)
15 Dec - 03:28:50 10° W 03:33:28 24° NW 03:38:08 10° N visible
15 Dec - 08:59:10 10° N 09:02:20 14° NE 09:05:31 10° ENE daylight
15 Dec - 10:43:59 10° NNW 10:49:56 67° ENE 10:56:00 10° SE daylight
15 Dec - 12:31:44 10° WNW 12:35:49 19° WSW 12:39:58 10° SSW daylight
16 Dec - 00:09:10 10° SE 00:11:55 14° ESE 00:14:40 10° ENE night (unlit)
16 Dec - 01:51:39 10° SSW 01:57:33 85° WNW 02:03:26 10° NNE night (unlit)
16 Dec - 03:41:11 10° W 03:44:54 17° NW 03:48:38 10° N visible
16 Dec - 09:09:32 10° N 09:13:49 20° NE 09:18:10 10° E daylight
16 Dec - 10:55:01 10° NNW 11:00:59 82° WSW 11:07:06 10° SSE daylight
16 Dec - 12:44:39 10° W 12:46:32 11° WSW 12:48:25 10° WSW daylight
17 Dec - 00:18:14 10° SSE 00:22:39 22° ESE 00:27:01 10° ENE night (unlit)
17 Dec - 02:02:52 10° SW 02:08:39 56° WNW 02:14:24 10° NNE night (unlit)
17 Dec - 03:54:08 10° WNW 03:56:26 12° NW 03:58:46 10° N visible
17 Dec - 09:20:08 10° N 09:25:12 28° NE 09:30:20 10° ESE daylight
17 Dec - 11:06:09 10° NW 11:11:57 54° WSW 11:17:53 10° S daylight
18 Dec - 00:28:11 10° S 00:33:27 35° ESE 00:38:40 10° NE night (unlit)
18 Dec - 02:14:24 10° WSW 02:19:49 38° NW 02:25:15 10° NNE night (unlit)
18 Dec - 09:30:54 10° NNW 09:36:28 40° NE 09:42:09 10° ESE daylight
18 Dec - 11:17:31 10° NW 11:22:51 35° WSW 11:28:18 10° S daylight
19 Dec - 00:38:37 10° S 00:44:20 55° ESE 00:50:01 10° NE night (unlit)
19 Dec - 02:26:14 10° WSW 02:31:06 27° NW 02:36:00 10° N night (unlit)
19 Dec - 07:57:13 10° N 07:59:54 13° NE 08:02:36 10° ENE daylight
19 Dec - 09:41:45 10° NNW 09:47:39 59° ENE 09:53:40 10° SE daylight
19 Dec - 11:29:09 10° WNW 11:33:39 22° WSW 11:38:14 10° SSW daylight
19 Dec - 23:08:04 10° ESE 23:09:47 11° ESE 23:11:29 10° E night (unlit)
